PASIPAJN

Guest
Details From PASI - SITKA ROCKY GUTIERREZ
To PAJN - Juneau Intl
Flight Number -
Tags generated
Created
Modified
Stats Distance 84 nm / 156 km
Max Altitude 7,900 ft / 2,408 m
Waypoints 3
Social Downloads 7
Likes 0
Share VATSIM

Download

Looking for another format? Having issues loading an existing format? Contact us
Advertisement - Login to hide

Notes

Basic altitude profile: - Ascent Rate: 2500ft/min - Ascent Speed: 250kts - Cruise Altitude: 35000ft - Cruise Speed: 420kts - Descent Rate: 1500ft/min - Descent Speed: 250kts

Route

PASI HOODS PAJN

ID Type Via Altitude Latitude Longitude Leg Dist Tot Dist Heading (true) Name
O PASI APT - 0 ft / 0 m 57.04713˚ -135.36160˚ - 0 nm - SITKA ROCKY GUTIERREZ
HOODS FIX - 7,900 ft / 2,408 m 57.74293˚ -134.68157˚ 47 nm 47 nm 27° / 28° -
O PAJN APT - 0 ft / 0 m 58.35496˚ -134.57628˚ 36 nm 84 nm 5° / 5° Juneau Intl

Altitude Profile

Advertisement - Login to hide

PASI

Details ICAO PASI (SIT)
Name SITKA ROCKY GUTIERREZ
Region USA (Alaska)
Timezone America/Juneau (UTC-9.0)
Stats Elevation 21 ft / 6 m (AMSL)
Location 57.047128° -135.361597°
Runways 1
Magnetic Variation 18.752° E

METAR

PASI 132253Z 11013G19KT 4SM RA BR OVC036 09/08 A3012

Decode

TAF

PASI 131736Z 1318/1418 11015G25KT P6SM -RA OVC040 WS020/16045KT FM140000 13025G35KT P6SM -RA OVC040 WS020/16050KT FM140500 13025G35KT 4SM -RA BR SCT015 OVC030 WS020/15060KT FM141300 13020G30KT 4SM -RA BR SCT015 OVC030 WS020/15045KT FM141600 13015G25KT 4SM -RA BR OVC025 WS020/15035KT

Decode

Departure Runways

ID Width Length Bearing (true) Bearing (mag) Surface Threshold Offset Overrun Length
11 150 ft / 46 m 6,485 ft / 1,977 m 135.57° 116.82° Asphalt 0 ft / 0 m 0 ft / 0 m
29 150 ft / 46 m 6,485 ft / 1,977 m 315.59° 296.84° Asphalt 0 ft / 0 m 0 ft / 0 m

PAJN

Details ICAO PAJN (JNU)
Name Juneau Intl
Region USA (Alaska)
Timezone America/Juneau (UTC-9.0)
Stats Elevation 21 ft / 6 m (AMSL)
Location 58.354964° -134.576278°
Runways 1
Magnetic Variation 19.149° E

METAR

PAJN 132253Z 11020G29KT 4SM RA BR FEW010 BKN046 OVC060 07/07 A3016

Decode

TAF

PAJN 131923Z 1319/1418 10017G25KT 5SM -RA BR SCT015 OVC035 WS020/14035KT FM140200 11018G28KT 3SM RA BR BKN015 OVC035 WS020/15040KT FM140800 11025G35KT 4SM RA BR SCT015 BKN040 OVC060 WS020/15035KT

Decode

Destination Runways

ID Width Length Bearing (true) Bearing (mag) Surface Threshold Offset Overrun Length
08 150 ft / 46 m 8,430 ft / 2,570 m 104.87° 85.72° Asphalt 0 ft / 0 m 450 ft / 137 m
26 150 ft / 46 m 8,430 ft / 2,570 m 284.90° 265.75° Asphalt 0 ft / 0 m 225 ft / 69 m

Approach Navaids

Runway Type Ident Frequency Range Bearing (true) Bearing (mag) Slope Elevation
08 Localiser IJDL 109.90 MHz 18 nm / 33 km 84.92° 65.77° - 21 ft / 6 m (AMSL)
08 DME IJDL 109.90 MHz 18 nm / 33 km - - - 175 ft / 53 m (AMSL)

Popular Alternatives